Location: Saratoga Springs
(43.0831°N, 73.7850°W)
Time: 13:05:39
(UTC-04:00)

SR - All Passes

Search period start: 23 April 2024 00:00
Search period end: 03 May 2024 00:00
Orbit: 577 x 862 km, 66.7° (Epoch: 22 April)

Date Brightness Start Highest point End Pass type
(mag) Time Alt. Az. Time Alt. Az. Time Alt. Az.
23 Apr - 01:30:41 10° SSW 01:36:10 60° ESE 01:41:18 10° NE visible
23 Apr - 03:14:01 10° W 03:18:23 24° NW 03:22:32 10° N visible
23 Apr - 10:10:32 10° NNW 10:14:54 48° NE 10:19:01 10° SE daylight
23 Apr - 11:53:25 10° WNW 11:56:17 17° WSW 11:59:04 10° SSW daylight
24 Apr - 00:39:26 10° S 00:44:13 30° ESE 00:48:43 10° NE visible
24 Apr - 02:20:44 10° SW 02:25:58 43° NW 02:30:51 10° NNE visible
24 Apr - 09:18:49 10° N 09:22:29 24° NE 09:26:00 10° E daylight
24 Apr - 11:00:22 10° NW 11:04:30 40° WSW 11:08:27 10° S daylight
24 Apr - 23:49:33 10° SE 23:52:24 14° ESE 23:55:11 10° ENE visible
25 Apr - 01:28:09 10° SSW 01:33:44 84° WNW 01:38:54 10° NNE visible
25 Apr - 03:12:59 10° W 03:16:18 16° NW 03:19:30 10° N visible
25 Apr - 08:27:38 10° N 08:29:51 13° NE 08:32:00 10° ENE daylight
25 Apr - 10:08:00 10° NNW 10:12:29 86° ENE 10:16:44 10° SSE daylight
26 Apr - 00:36:18 10° S 00:41:39 49° ESE 00:46:37 10° NE visible
26 Apr - 02:19:04 10° WSW 02:23:43 28° NW 02:28:05 10° N visible
26 Apr - 09:16:02 10° NNW 09:20:14 38° NE 09:24:14 10° ESE daylight
26 Apr - 10:58:27 10° WNW 11:01:48 22° WSW 11:05:03 10° SSW daylight
26 Apr - 23:45:19 10° SSE 23:49:42 24° ESE 23:53:51 10° ENE visible
27 Apr - 01:25:58 10° SW 01:31:20 52° NW 01:36:19 10° NNE visible
27 Apr - 03:12:47 10° NW 03:14:18 11° NW 03:15:47 10° NNW visible
27 Apr - 08:24:24 10° N 08:27:45 20° NE 08:30:57 10° E daylight
27 Apr - 10:05:38 10° NW 10:09:55 51° WSW 10:14:01 10° SSE daylight
27 Apr - 22:56:20 10° ESE 22:57:55 11° ESE 22:59:28 10° E visible
28 Apr - 00:33:34 10° SSW 00:39:07 81° ESE 00:44:15 10° NNE visible
28 Apr - 02:17:48 10° W 02:21:31 19° NW 02:25:06 10° N visible
28 Apr - 07:33:36 10° NNE 07:35:01 11° NE 07:36:23 10° NE daylight
28 Apr - 09:13:23 10° NNW 09:17:50 68° ENE 09:22:02 10° SE daylight
28 Apr - 10:57:27 10° W 10:58:58 12° WSW 11:00:28 10° SW daylight
28 Apr - 23:41:54 10° S 23:47:02 40° ESE 23:51:50 10° NE visible
29 Apr - 01:24:07 10° WSW 01:28:58 33° NW 01:33:33 10° NNE visible
29 Apr - 08:21:29 10° NNW 08:25:29 31° NE 08:29:18 10° ESE daylight
29 Apr - 10:03:30 10° NW 10:07:13 27° WSW 10:10:48 10° S daylight
29 Apr - 22:51:15 10° SSE 22:55:07 20° ESE 22:58:48 10° ENE visible
30 Apr - 00:31:11 10° SW 00:36:37 63° WNW 00:41:40 10° NNE visible
30 Apr - 02:17:05 10° WNW 02:19:24 13° NW 02:21:41 10° N visible
30 Apr - 07:29:58 10° N 07:32:54 17° NE 07:35:43 10° E daylight
30 Apr - 09:10:53 10° NW 09:15:15 66° WSW 09:19:26 10° SSE daylight
30 Apr - 23:38:58 10° SSW 23:44:25 66° ESE 23:49:29 10° NE visible
01 May - 01:22:35 10° W 01:26:41 22° NW 01:30:35 10° N visible
01 May - 08:18:43 10° NNW 08:23:04 53° NE 08:27:12 10° SE daylight
01 May - 10:01:54 10° WNW 10:04:22 15° WSW 10:06:48 10° SW daylight
01 May - 22:47:32 10° S 22:52:22 32° ESE 22:56:55 10° NE visible
02 May - 00:29:07 10° WSW 00:34:11 39° NW 00:38:54 10° NNE visible
02 May - 07:26:53 10° N 07:30:38 26° NE 07:34:13 10° ESE daylight
02 May - 09:08:33 10° NW 09:12:32 35° WSW 09:16:22 10° S daylight
02 May - 21:57:18 10° SE 22:00:27 16° ESE 22:03:30 10° ENE visible
02 May - 23:36:22 10° SW 23:41:50 76° WNW 23:46:54 10° NNE visible
